weather.gov     
National Weather Service

Terminal Aerodrome Forecast
NWS Homepage
This page is being discontinued on March 12, 2014.
The same data is available at this site. Please update your bookmarks.
Thank you, and we apologize for the inconvenience.
Please send an email to SR-SRH.Webmaster@noaa.gov with any concerns.


Current Version
Previous Version:    01  02  03  04  05  06  07  08  09  10  11  12  13  14  15  16  17  18  19  20  21  22  23  24  25  26  27  28  29  30  
   31  
[Printable]
961
FTUS41 KRNK 191122
TAFROA
TAF
KROA 191122Z 1912/2012 00000KT P6SM -DZ OVC015
     FM191400 08008KT 6SM -RA BR SCT007 OVC012
     FM192000 10005KT P6SM BKN025 BKN035
     FM200100 10003KT P6SM SCT010 BKN025
     FM200800 09003KT 5SM BR OVC015=




961
FTUS41 KRNK 191122
TAFROA
TAF
KROA 191122Z 1912/2012 00000KT P6SM -DZ OVC015
     FM191400 08008KT 6SM -RA BR SCT007 OVC012
     FM192000 10005KT P6SM BKN025 BKN035
     FM200100 10003KT P6SM SCT010 BKN025
     FM200800 09003KT 5SM BR OVC015=


U.S. Dept. of Commerce
NOAA National Weather Service
1325 East West Highway
Silver Spring, MD 20910
E-mail: w-nws.webmaster@noaa.gov
Page last modified: May 16, 2007
NATIONAL WEATHER SERVICE: for Safety, for Work, for Fun - FOR LIFE